Regional Weather Roundup
Issued by NWS Goodland, KS

Home | Current Version | Previous Version | Graphics & Text | Print | Product List | Glossary On
Versions: 1 2 3 4 5 6 7 8 9 10 11 12 13 14 15 16 17 18 19 20 21 22 23 24 25 26 27 28 29 30 31 32 33 34 35 36 37 38 39 40 41 42 43 44 45 46 47 48 49 50
000
ASUS43 KGLD 170459
RWRGLD

GOODLAND FORECAST AREA HOURLY WEATHER ROUNDUP
NATIONAL WEATHER SERVICE GOODLAND KS
1000 PM MST THU NOV 16 2017

...OFFICIAL OBSERVATIONS...

CITY           SKY/WX    TMP DP  RH WIND       PRES   REMARKS
GOODLAND KS    CLOUDY    47  38  71 S12       29.71F
HILL CITY KS   CLOUDY    51  44  77 S12       29.74F
IMPERIAL NEB   NOT AVBL
MCCOOK NEB     CLOUDY    50  39  66 S7G20     29.68F
AKRON CO       CLOUDY    52  20  28 SW15      29.72R
BURLINGTON CO  CLOUDY    51  27  39 SW12      29.74S
LIMON CO       CLOUDY    49  22  34 VRB3      29.81S
$$

...UNOFFICIAL OBSERVATIONS...

CITY           SKY/WX    TMP DP  RH WIND       PRES   REMARKS
LENORA KS        N/A     49  32  52 SE9         N/A
NORTON KS      CLEAR     48  36  61 SE9       29.72
SHARON SPRINGS   N/A     46  39  77 S10         N/A
TRENTON NEB      N/A     51  32  48 SW5         N/A
KIT CARSON CO    N/A     43  26  51 CALM        N/A
YUMA CO        FAIR      43  25  49 SW9       29.70R
$$




USA.gov is the U.S. government's official web portal to all federal, state and local government web resources and services.